Location: *
(38.8181°S, 103.0319°E)
Time: 22:53:54
(UTC+00:00)

Daily predictions for brighter satellites

Satellite Brightness Start Highest point End
(mag) Time Altitude Azimuth Time Altitude Azimuth Time Altitude Azimuth
SL-16 R/B 3.1 12:00:52 10° SSW 12:06:23 50° WNW 12:11:51 10° N
Aureole 1 Rocket 3.7 12:02:48 10° N 12:07:50 73° ENE 12:14:39 10° SSE
Cosmos 1515 Rocket 3.4 12:05:31 10° S 12:10:01 80° E 12:14:29 10° N
Cosmos 2056 Rocket 4.5 12:06:15 10° SSW 12:11:26 50° WNW 12:16:38 10° N
Cosmos 1452 Rocket 3.5 12:06:59 10° SSW 12:12:18 63° ESE 12:14:36 33° NE
NOAA 12 4.0 12:07:16 10° SSE 12:12:39 63° E 12:17:55 10° N
FENGYUN 3A 3.6 12:08:23 10° SSE 12:13:55 90° WSW 12:19:20 10° NNW
Lacrosse 5 rocket 3.1 12:10:33 10° SSW 12:13:24 22° SSE 12:13:24 22° SSE
Cosmos 2227 4.2 12:11:12 10° NNW 12:16:59 85° WSW 12:22:48 10° SSE
IRS-1A Rocket 4.3 12:11:58 10° SSE 12:17:58 80° ENE 12:23:47 10° NNW
ALOS 2.6 12:15:05 10° S 12:19:48 66° WSW 12:24:27 10° NNW
Cosmos 2151 3.8 12:18:56 10° NNW 12:23:09 51° W 12:27:23 10° S
Cosmos 2341 Rocket 4.4 12:17:52 10° SSW 12:24:15 66° W 12:30:36 10° N
Cosmos 2218 Rocket 3.9 12:18:49 10° S 12:25:06 69° E 12:31:21 10° NNE
COSMOS 2455 4.4 12:19:47 10° WNW 12:25:11 34° SW 12:30:38 10° SSE
Ariane Rocket 4.0 12:21:56 10° S 12:26:53 48° WSW 12:31:46 10° NW
Cosmos 2228 Rocket 3.5 12:23:21 10° SSW 12:27:52 64° W 12:32:16 10° N
Cosmos 2098 Rocket 4.1 12:21:20 10° S 12:28:50 69° E 12:33:55 18° NNE
SL-08 R/B 4.4 12:24:45 10° S 12:30:53 60° E 12:31:59 52° ENE
Cosmos 2366 rocket 3.8 12:26:58 10° S 12:33:12 72° E 12:36:25 30° NNE
Cosmos 1603 3.6 12:27:55 10° SSW 12:33:46 87° ESE 12:35:30 47° NNE
USA 229 DEB 3.7 12:26:46 10° NNW 12:34:10 75° ENE 12:37:25 37° SE
USA 229 3.7 12:26:52 10° NNW 12:34:16 75° ENE 12:37:27 37° SE
NOSS 3-1 (C) 4.2 12:26:39 10° N 12:34:47 49° ENE 12:35:40 47° E
Cosmos 1943 3.6 12:29:22 10° SSW 12:33:54 45° SSE 12:33:54 45° SSE
SL-8 Rocket 4.1 12:34:19 10° S 12:40:42 75° W 12:47:02 10° N
Cosmos 1818 3.8 12:43:39 10° NW 12:49:01 65° WSW 12:49:58 55° S
YAOGAN 1 4.4 12:47:00 10° S 12:50:50 30° WSW 12:54:37 10° NW
Cosmos 1048 Rocket 4.1 12:47:02 10° NNW 12:52:21 77° W 12:52:21 77° W
Atlas Centaur 2 4.1 13:04:48 10° NW 13:05:22 13° NW 13:05:22 13° NW
Cosmos 2263 Rocket 3.5 13:21:25 10° NW 13:24:51 34° WNW 13:24:51 34° WNW
Cosmos 1980 Rocket 4.0 20:24:18 27° E 20:24:18 27° E 20:27:55 10° SE
Milstar 3 Cent rocket 4.4 20:42:40 16° NE 20:42:40 16° NE 20:44:07 10° ENE
IDEFIX/ARIANE 42P 4.0 20:50:48 10° NNE 21:02:20 - S 20:53:44 32° NE
Cosmos 1867 4.2 21:03:29 51° E 21:03:29 51° E 21:08:14 10° SE
Lacrosse 4 Rocket 3.6 21:10:16 21° SSE 21:10:16 21° SSE 21:11:44 10° SSE
Lacrosse 5 3.8 21:12:39 20° S 21:12:39 20° S 21:14:44 10° SSE
Cosmos 883 Rocket 4.4 21:14:52 10° S 21:21:19 83° W 21:27:40 10° N
USA 234 3.1 21:17:56 10° SE 21:24:34 78° SW 21:25:37 64° WNW
NOAA 6 4.1 21:19:40 10° NNE 21:24:53 80° ESE 21:30:10 10° S
CZ-2C R/B 2.7 21:21:36 10° NNE 21:26:11 60° ESE 21:30:58 10° S
SJ 16-02 3.9 21:22:59 10° NNE 21:26:21 21° E 21:29:45 10° SE
SL-16 R/B 4.5 21:25:22 10° SSW 21:26:25 14° SSW 21:26:25 14° SSW
Cosmos 1818 3.4 21:37:17 74° WSW 21:37:39 79° WNW 21:43:01 10° NNE
MSX 3.8 21:32:03 10° NNE 21:37:48 82° ESE 21:43:37 10° SSW
Cosmos 2315 Rocket 3.9 21:32:15 10° S 21:38:43 81° W 21:45:04 10° N
Feng Yun 1-1 Rocket 4.0 21:35:28 10° NNE 21:40:57 83° WNW 21:46:27 10° SSW
CZ-3 R/B 3.4 21:31:02 26° WNW 21:41:18 47° N 21:47:56 10° ENE
Cosmos 2360 4.1 21:41:30 61° WSW 21:41:46 62° WSW 21:47:30 10° SSE
Cosmos 1244 Rocket 4.4 21:44:12 10° N 21:50:30 88° W 21:56:58 10° S
ATLAS 3B CENTAUR R/B 3.6 21:51:47 25° NW 21:54:19 33° N 22:05:05 10° ENE
Cosmos 1626 3.6 21:51:26 10° S 21:54:59 37° ESE 21:58:30 10° NNE
BREEZE M DEB (TANK) 4.2 21:51:35 33° WNW 21:55:38 62° SW 21:59:30 10° SE
Okean-O 2.5 21:54:29 10° N 21:58:55 69° WNW 22:03:25 10° SSW
Cosmos 1898 Rocket 4.2 22:00:14 34° SW 22:00:14 34° SW 22:04:24 10° S
USA 229 DEB 3.6 21:55:45 27° SW 21:59:40 63° WNW 22:06:17 10° NNE
USA 229 3.6 21:55:47 26° SW 21:59:46 63° WNW 22:06:24 10° NNE
NOSS 3-1 (C) 3.4 21:54:47 16° SSW 21:59:59 78° SE 22:05:37 10° NE
NOSS 3-1 (A) 3.9 21:56:20 10° SSW 22:02:37 57° SE 22:08:10 10° NE
Cosmos 2360 Rocket 4.4 21:59:51 10° NNE 22:04:32 27° ENE 22:09:15 10° SE
Cosmos 1980 Rocket 2.7 22:06:07 36° WSW 22:06:50 37° WSW 22:12:10 10° S
Cosmos 1697 Rocket 4.1 22:09:14 21° SW 22:09:14 21° SW 22:12:39 10° S
Cosmos 1937 Rocket 3.9 22:09:54 37° W 22:10:39 39° WSW 22:15:33 10° S
GP-B 4.2 22:10:55 10° NNE 22:15:11 46° E 22:19:31 10° S
Cosmos 1328 3.9 22:12:12 10° S 22:16:15 78° E 22:20:15 10° N
Cosmos 1125 Rocket 4.2 22:12:19 10° N 22:17:27 58° ENE 22:22:36 10° SSE
USA 161 1.6 22:18:03 10° SSE 22:20:47 70° E 22:23:41 10° N
Okean 3 Rocket 3.5 22:16:23 10° S 22:20:54 80° W 22:25:23 10° N
Cosmos 2263 Rocket 2.7 22:15:38 10° SSW 22:21:12 61° ESE 22:26:44 10° NE
Cosmos 1076 Rocket 3.4 22:18:05 10° SSW 22:22:23 69° W 22:26:38 10° N
SL-16 R/B 2.1 22:17:41 10° NNW 22:23:22 82° WSW 22:29:08 10° SSE
BREEZE-M DEB (TANK) 2.9 22:19:04 13° WNW 22:27:01 72° SW 22:30:10 10° SE
CZ-4 R/B 3.2 22:23:46 10° NE 22:27:23 33° ESE 22:30:59 10° S
BREEZE-M DEB (TANK) 4.1 22:12:05 12° WNW 22:28:34 79° SSW 22:33:21 10° ESE
Cosmos 2285 Rocket 4.0 22:22:09 10° SSW 22:28:38 88° WNW 22:35:05 10° NNE
Cosmos 372 Rocket 4.0 22:24:07 10° NNW 22:29:14 81° ENE 22:34:24 10° SSE
Cosmos 2292 Rocket 3.5 22:27:07 10° NNW 22:30:56 63° W 22:36:05 10° S
IDEFIX/ARIANE 42P 4.0 22:32:06 10° NW 22:34:31 17° WNW 22:34:31 17° WNW
Cosmos 2322 Rocket 2.1 22:31:21 10° NNW 22:36:57 66° WSW 22:42:37 10° SSE
Cosmos 44 3.6 22:36:01 10° NNW 22:41:16 76° ENE 22:46:18 10° SE
Aureole 2 Rocket 1.7 22:40:14 10° NNW 22:43:05 70° WSW 22:45:53 10° SSE
Meteor 1-16 Rocket 4.3 22:39:22 10° NNW 22:44:29 47° WSW 22:49:42 10° S
Lacrosse 4 Rocket 3.5 22:46:39 11° SW 22:46:39 11° SW 22:48:06 10° SSW
Cosmos 1408 Rocket 3.5 22:44:31 10° S 22:49:03 85° W 22:53:30 10° N
Cosmos 1484 Rocket 3.2 22:45:49 10° N 22:49:27 41° W 22:53:13 10° SSW
SMAP 3.0 22:45:14 10° N 22:49:54 75° WNW 22:54:39 10° SSW
OAO 2 Rocket 3.8 22:46:08 15° W 22:50:03 52° N 22:54:57 10° ENE
Cosmos 1703 3.2 22:49:01 10° S 22:52:59 75° W 22:56:54 10° N
Lacrosse 5 4.1 22:53:11 10° SSW 22:54:48 11° SSW 22:56:25 10° S
CSL-04 Rocket 3.6 22:55:25 10° N 23:00:49 72° WNW 23:06:13 10° SSW
BREEZE-M (TANK) 4.2 23:02:04 10° SSW 23:03:16 12° S 23:04:24 10° SE
SJ 16-02 2.1 23:00:44 10° NW 23:04:43 32° WSW 23:08:45 10° S
CZ-2C R/B 4.0 23:02:51 10° WNW 23:04:52 13° W 23:06:55 10° WSW
USA 234 4.3 23:01:26 10° SSE 23:06:54 29° SSW 23:12:22 10° W
SKYMED 2 4.1 23:03:34 10° SSE 23:07:59 68° ENE 23:12:19 10° N
ASTEX 1 3.8 23:06:10 10° S 23:11:12 72° E 23:16:09 10° N
Meteor 1-28 Rocket 4.3 23:09:30 10° SSW 23:12:32 23° WSW 23:15:34 10° NW
USA 116 4.2 23:07:32 10° S 23:12:41 73° WSW 23:17:17 10° NNW
Cosmos 2058 2.9 23:10:17 10° SSW 23:14:27 67° W 23:18:32 10° N
Milstar 3 Cent rocket 3.6 23:13:26 10° WNW 23:17:26 25° N 23:21:37 10° NE
Cosmos 44 Rocket 3.4 23:16:12 10° NW 23:21:17 71° WSW 23:26:18 10° SSE
ALOS 2.3 23:16:55 10° N 23:21:37 80° W 23:26:24 10° SSW
Cosmos 1048 Rocket 4.3 23:16:43 10° SSW 23:21:49 49° WNW 23:26:48 10° N
METEOR-M 4.3 23:16:38 10° N 23:21:53 56° W 23:27:13 10° SSW
NOSS 2-3 (E) 4.4 23:16:45 10° SSW 23:23:17 81° SE 23:28:25 10° NE
